When you browse on this site, cookies collect data to enhance your experience and personalize the content and advertising you see.
Visit our Privacy Policy to learn more. By continuing to use the site, you agree to this use of cookies and data.
  • în România
  • Lista ţărilor
  • Pe 7 zile
  • Temperatura apei
  • Hartă satelitară
  • Meteo pe hartă
  • Widget-uri
  • user-avatar
    Intrare

    Meteo pe oră la Hajdarabad

    Astăzi, 21 Iulie, Duminică

    Timp Temperatura Precipitaţii Vânt Presiune Umiditate
    00:00 +35°C° 0 mm 6 m/s 747 mmHg 51%
    01:00 +35°C° 0 mm 5 m/s 746 mmHg 51%
    02:00 +34°C° 0 mm 5 m/s 746 mmHg 52%
    03:00 +34°C° 0 mm 4 m/s 746 mmHg 53%
    04:00 +34°C° 0 mm 4 m/s 745 mmHg 54%
    05:00 +33°C° 0 mm 4 m/s 745 mmHg 55%
    06:00 +34°C° 0 mm 5 m/s 746 mmHg 53%
    07:00 +35°C° 0 mm 5 m/s 746 mmHg 51%
    08:00 +35°C° 0 mm 6 m/s 747 mmHg 50%
    09:00 +37°C° 0 mm 5 m/s 747 mmHg 43%
    10:00 +41°C° 0 mm 5 m/s 747 mmHg 37%
    11:00 +43°C° 0 mm 4 m/s 747 mmHg 30%
    12:00 +44°C° 0 mm 4 m/s 747 mmHg 29%
    13:00 +45°C° 0 mm 4 m/s 746 mmHg 27%
    14:00 +45°C° 0 mm 4 m/s 746 mmHg 26%
    15:00 +45°C° 0 mm 4 m/s 745 mmHg 26%
    16:00 +46°C° 0 mm 5 m/s 745 mmHg 27%
    17:00 +45°C° 0 mm 5 m/s 744 mmHg 28%
    18:00 +42°C° 0 mm 6 m/s 745 mmHg 33%
    19:00 +41°C° 0 mm 7 m/s 745 mmHg 38%
    20:00 +39°C° 0 mm 8 m/s 745 mmHg 43%
    21:00 +38°C° 0 mm 8 m/s 746 mmHg 47%
    22:00 +37°C° 0 mm 8 m/s 746 mmHg 51%
    23:00 +34°C° 0 mm 7 m/s 746 mmHg 54%

    Mâine, 22 Iulie, Luni

    Timp Temperatura Precipitaţii Vânt Presiune Umiditate
    00:00 +34°C° 0.4 mm 8 m/s 746 mmHg 57%
    01:00 +33°C° 0.4 mm 8 m/s 746 mmHg 60%
    02:00 +33°C° 0.4 mm 8 m/s 745 mmHg 62%
    03:00 +33°C° 0.1 mm 8 m/s 745 mmHg 63%
    04:00 +33°C° 0.1 mm 8 m/s 745 mmHg 64%
    05:00 +32°C° 0.1 mm 8 m/s 745 mmHg 65%
    06:00 +33°C° 0 mm 8 m/s 745 mmHg 63%
    07:00 +34°C° 0 mm 8 m/s 745 mmHg 60%
    08:00 +34°C° 0 mm 7 m/s 746 mmHg 58%
    09:00 +36°C° 0 mm 7 m/s 746 mmHg 50%
    10:00 +40°C° 0 mm 7 m/s 746 mmHg 42%
    11:00 +43°C° 0 mm 7 m/s 746 mmHg 34%
    12:00 +44°C° 0 mm 7 m/s 745 mmHg 31%
    13:00 +45°C° 0 mm 7 m/s 745 mmHg 29%
    14:00 +46°C° 0 mm 7 m/s 744 mmHg 27%
    15:00 +46°C° 0 mm 7 m/s 744 mmHg 28%
    16:00 +45°C° 0 mm 8 m/s 743 mmHg 30%
    17:00 +44°C° 0 mm 8 m/s 743 mmHg 32%
    18:00 +41°C° 0 mm 8 m/s 743 mmHg 37%
    19:00 +39°C° 0 mm 8 m/s 744 mmHg 43%
    20:00 +37°C° 0 mm 8 m/s 744 mmHg 49%
    21:00 +35°C° 0 mm 9 m/s 745 mmHg 54%
    22:00 +34°C° 0 mm 9 m/s 745 mmHg 59%
    23:00 +33°C° 0 mm 9 m/s 745 mmHg 64%

    Poimâine, 23 Iulie, Marţi

    Timp Temperatura Precipitaţii Vânt Presiune Umiditate
    00:00 +33°C° 0 mm 9 m/s 745 mmHg 66%
    01:00 +32°C° 0 mm 9 m/s 745 mmHg 67%
    02:00 +32°C° 0 mm 9 m/s 745 mmHg 69%
    03:00 +32°C° 0 mm 9 m/s 744 mmHg 69%
    04:00 +32°C° 0 mm 8 m/s 744 mmHg 70%
    05:00 +32°C° 0 mm 8 m/s 744 mmHg 70%
    06:00 +32°C° 0 mm 8 m/s 745 mmHg 68%
    07:00 +33°C° 0 mm 8 m/s 745 mmHg 65%
    08:00 +33°C° 0 mm 8 m/s 746 mmHg 62%
    09:00 +35°C° 0 mm 8 m/s 745 mmHg 56%
    10:00 +38°C° 0 mm 8 m/s 745 mmHg 49%
    11:00 +40°C° 0 mm 8 m/s 745 mmHg 42%
    12:00 +43°C° 0 mm 8 m/s 745 mmHg 38%
    13:00 +44°C° 0 mm 8 m/s 744 mmHg 34%
    14:00 +45°C° 0 mm 8 m/s 743 mmHg 31%
    15:00 +45°C° 0 mm 8 m/s 743 mmHg 32%
    16:00 +44°C° 0 mm 8 m/s 743 mmHg 33%
    17:00 +44°C° 0 mm 8 m/s 743 mmHg 35%
    18:00 +40°C° 0 mm 9 m/s 743 mmHg 42%
    19:00 +38°C° 0 mm 9 m/s 744 mmHg 49%
    20:00 +35°C° 0 mm 9 m/s 744 mmHg 57%
    21:00 +34°C° 0 mm 9 m/s 744 mmHg 60%
    22:00 +33°C° 0 mm 9 m/s 745 mmHg 64%
    23:00 +33°C° 0 mm 9 m/s 745 mmHg 67%

    24 Iulie, Miercuri

    Timp Temperatura Precipitaţii Vânt Presiune Umiditate
    00:00 +32°C° 0 mm 9 m/s 745 mmHg 68%
    01:00 +32°C° 0 mm 9 m/s 745 mmHg 70%
    02:00 +32°C° 0 mm 9 m/s 744 mmHg 71%
    03:00 +32°C° 0 mm 9 m/s 744 mmHg 71%
    04:00 +32°C° 0 mm 9 m/s 744 mmHg 71%
    05:00 +31°C° 0 mm 9 m/s 744 mmHg 71%
    06:00 +32°C° 0 mm 9 m/s 744 mmHg 69%
    07:00 +32°C° 0 mm 9 m/s 744 mmHg 67%
    08:00 +33°C° 0 mm 10 m/s 745 mmHg 65%
    09:00 +36°C° 0 mm 10 m/s 745 mmHg 58%
    10:00 +38°C° 0 mm 10 m/s 745 mmHg 51%
    11:00 +40°C° 0 mm 9 m/s 745 mmHg 45%
    12:00 +42°C° 0 mm 10 m/s 744 mmHg 42%
    13:00 +42°C° 0 mm 10 m/s 743 mmHg 40%
    14:00 +43°C° 0 mm 10 m/s 743 mmHg 38%
    15:00 +43°C° 0 mm 10 m/s 743 mmHg 40%
    16:00 +42°C° 0 mm 10 m/s 742 mmHg 42%
    17:00 +41°C° 0 mm 11 m/s 742 mmHg 44%
    18:00 +38°C° 0 mm 11 m/s 743 mmHg 50%
    19:00 +36°C° 0 mm 11 m/s 743 mmHg 57%
    20:00 +33°C° 0 mm 11 m/s 743 mmHg 63%
    21:00 +33°C° 0 mm 11 m/s 743 mmHg 65%
    22:00 +32°C° 0 mm 11 m/s 744 mmHg 67%
    23:00 +32°C° 0 mm 11 m/s 744 mmHg 69%

    25 Iulie, Joi

    Timp Temperatura Precipitaţii Vânt Presiune Umiditate
    00:00 +32°C° 0 mm 11 m/s 744 mmHg 70%
    01:00 +32°C° 0 mm 11 m/s 743 mmHg 70%
    02:00 +32°C° 0 mm 11 m/s 743 mmHg 70%
    03:00 +32°C° 0 mm 11 m/s 743 mmHg 70%
    04:00 +32°C° 0 mm 11 m/s 743 mmHg 70%
    05:00 +32°C° 0 mm 11 m/s 743 mmHg 70%
    06:00 +32°C° 0 mm 11 m/s 743 mmHg 68%
    07:00 +32°C° 0 mm 12 m/s 743 mmHg 66%
    08:00 +33°C° 0 mm 12 m/s 743 mmHg 64%
    09:00 +34°C° 0 mm 12 m/s 743 mmHg 59%
    10:00 +37°C° 0 mm 12 m/s 743 mmHg 55%
    11:00 +38°C° 0 mm 12 m/s 744 mmHg 50%
    12:00 +39°C° 0 mm 13 m/s 743 mmHg 48%
    13:00 +39°C° 0 mm 13 m/s 743 mmHg 47%
    14:00 +39°C° 0 mm 13 m/s 742 mmHg 46%
    15:00 +39°C° 0 mm 13 m/s 742 mmHg 47%
    16:00 +38°C° 0 mm 13 m/s 741 mmHg 49%
    17:00 +38°C° 0 mm 12 m/s 741 mmHg 51%
    18:00 +36°C° 0 mm 12 m/s 742 mmHg 56%
    19:00 +34°C° 0 mm 12 m/s 742 mmHg 61%
    20:00 +32°C° 0 mm 12 m/s 742 mmHg 67%
    21:00 +32°C° 0 mm 12 m/s 743 mmHg 68%
    22:00 +32°C° 0 mm 12 m/s 743 mmHg 69%
    23:00 +31°C° 0 mm 12 m/s 743 mmHg 70%

    26 Iulie, Vineri

    Timp Temperatura Precipitaţii Vânt Presiune Umiditate
    00:00 +31°C° 0 mm 12 m/s 743 mmHg 70%
    01:00 +31°C° 0 mm 12 m/s 742 mmHg 71%
    02:00 +31°C° 0 mm 12 m/s 742 mmHg 71%
    03:00 +31°C° 0 mm 12 m/s 742 mmHg 71%
    04:00 +31°C° 0 mm 12 m/s 742 mmHg 71%
    05:00 +31°C° 0 mm 11 m/s 742 mmHg 71%
    06:00 +32°C° 0 mm 12 m/s 742 mmHg 69%
    07:00 +32°C° 0 mm 12 m/s 742 mmHg 67%
    08:00 +33°C° 0 mm 12 m/s 742 mmHg 65%
    09:00 +34°C° 0 mm 12 m/s 742 mmHg 61%
    10:00 +36°C° 0 mm 12 m/s 743 mmHg 58%
    11:00 +37°C° 0 mm 12 m/s 743 mmHg 54%
    12:00 +38°C° 0 mm 12 m/s 742 mmHg 52%
    13:00 +39°C° 0 mm 12 m/s 742 mmHg 49%
    14:00 +39°C° 0 mm 11 m/s 741 mmHg 47%
    15:00 +39°C° 0 mm 11 m/s 741 mmHg 49%
    16:00 +38°C° 0 mm 12 m/s 741 mmHg 51%
    17:00 +38°C° 0 mm 12 m/s 741 mmHg 52%
    18:00 +36°C° 0 mm 11 m/s 741 mmHg 58%
    19:00 +34°C° 0 mm 11 m/s 742 mmHg 63%
    20:00 +33°C° 0 mm 10 m/s 742 mmHg 69%
    21:00 +32°C° 0 mm 10 m/s 743 mmHg 69%
    22:00 +32°C° 0 mm 10 m/s 743 mmHg 70%
    23:00 +32°C° 0 mm 10 m/s 744 mmHg 70%
    Arată mai mult